User: anonymous
Location: Unspecified
(0.0000°N, 0.0000°E)
Time: 04:35:51
(UTC+02:00)
Language:

YAOGAN 1 - Orbit

View from above orbital plane
View from above orbital plane
View from above satellite
View from above satellite

Ground track
Ground track

The orbit data is extracted from the following two-line orbital elements,

1 29092U 06015A   14212.64533811  .00000432  00000-0  61422-4 0  1142
2 29092 097.9817 208.0104 0001448 103.2766 030.9205 14.81846873446577
Epoch (UTC): 31 July 2014 15:29:17
Eccentricity: 0.0001448
inclination: 97.9817°
perigee height: 622 km
apogee height: 624 km
right ascension of ascending node: 208.0104°
argument of perigee: 103.2766°
revolutions per day: 14.81846873
mean anomaly at epoch: 30.9205°
orbit number at epoch: 44657

The dashed part of the orbit path shows where the satellite is in the earth's shadow,  

DLR